Time,TemperatureF,DewpointF,PressureIn,WindDirection,WindDirectionDegrees,WindSpeedMPH,WindSpeedGustMPH,Humidity,HourlyPrecipIn,Conditions,Clouds,dailyrainin,SoftwareType,DateUTC
2013-05-08 00:02:00,57.0,50.0,-100.00,NNW,330,2.0,2.0,78,-99.99,,,-99.99,,2013-05-08 05:02:00,
2013-05-08 00:10:00,51.0,51.0,-100.00,WSW,245,5.0,5.0,99,-99.99,,,-99.99,,2013-05-08 05:10:00,
2013-05-08 00:32:00,51.0,51.0,-100.00,WSW,245,5.0,5.0,99,-99.99,,,-99.99,,2013-05-08 05:32:00,
2013-05-08 00:42:00,51.0,51.0,-100.00,WSW,245,5.0,5.0,99,-99.99,,,-99.99,,2013-05-08 05:42:00,
2013-05-08 00:52:00,51.0,51.0,-100.00,WSW,245,5.0,5.0,99,-99.99,,,-99.99,,2013-05-08 05:52:00,
2013-05-08 01:01:00,51.0,51.0,-100.00,WSW,245,5.0,5.0,99,-99.99,,,-99.99,,2013-05-08 06:01:00,
2013-05-08 01:32:00,49.0,49.0,-100.00,SE,140,7.0,7.0,99,-99.99,,,-99.99,,2013-05-08 06:32:00,
2013-05-08 01:42:00,49.0,49.0,-100.00,SE,140,7.0,7.0,99,-99.99,,,-99.99,,2013-05-08 06:42:00,
2013-05-08 01:52:00,49.0,49.0,-100.00,SE,140,7.0,7.0,99,-99.99,,,-99.99,,2013-05-08 06:52:00,
2013-05-08 02:02:00,49.0,49.0,-100.00,SE,140,7.0,7.0,99,-99.99,,,-99.99,,2013-05-08 07:02:00,
2013-05-08 02:32:00,52.0,50.0,-100.00,WSW,250,2.0,3.0,95,-99.99,,,-99.99,,2013-05-08 07:32:00,
2013-05-08 02:42:00,52.0,50.0,-100.00,WSW,250,2.0,3.0,95,-99.99,,,-99.99,,2013-05-08 07:42:00,
2013-05-08 02:52:00,52.0,50.0,-100.00,WSW,250,2.0,3.0,95,-99.99,,,-99.99,,2013-05-08 07:52:00,
2013-05-08 03:01:00,52.0,50.0,-100.00,WSW,250,2.0,3.0,95,-99.99,,,-99.99,,2013-05-08 08:01:00,
2013-05-08 03:10:00,52.0,50.0,-100.00,NW,310,3.0,3.0,95,-99.99,,,-99.99,,2013-05-08 08:10:00,
2013-05-08 03:32:00,52.0,50.0,-100.00,NW,310,3.0,3.0,95,-99.99,,,-99.99,,2013-05-08 08:32:00,
2013-05-08 03:43:00,52.0,50.0,-100.00,NW,310,3.0,3.0,95,-99.99,,,-99.99,,2013-05-08 08:43:00,
2013-05-08 03:52:00,52.0,50.0,-100.00,NW,310,3.0,3.0,95,-99.99,,,-99.99,,2013-05-08 08:52:00,
2013-05-08 04:02:00,52.0,50.0,-100.00,NW,310,3.0,3.0,95,-99.99,,,-99.99,,2013-05-08 09:02:00,
2013-05-08 04:32:00,52.0,48.0,-100.00,WSW,240,4.0,4.0,86,-99.99,,,-99.99,,2013-05-08 09:32:00,
2013-05-08 04:42:00,52.0,48.0,-100.00,WSW,240,4.0,4.0,86,-99.99,,,-99.99,,2013-05-08 09:42:00,
2013-05-08 04:53:00,52.0,48.0,-100.00,WSW,240,4.0,4.0,86,-99.99,,,-99.99,,2013-05-08 09:53:00,
2013-05-08 05:02:00,52.0,48.0,-100.00,WSW,240,4.0,4.0,86,-99.99,,,-99.99,,2013-05-08 10:02:00,
2013-05-08 05:33:00,49.0,48.0,-100.00,NW,325,8.0,10.0,97,-99.99,,,-99.99,,2013-05-08 10:33:00,
2013-05-08 05:42:00,49.0,48.0,-100.00,NW,325,8.0,10.0,97,-99.99,,,-99.99,,2013-05-08 10:42:00,
2013-05-08 05:52:00,49.0,48.0,-100.00,NW,325,8.0,10.0,97,-99.99,,,-99.99,,2013-05-08 10:52:00,
2013-05-08 06:02:00,49.0,48.0,-100.00,NW,325,8.0,10.0,97,-99.99,,,-99.99,,2013-05-08 11:02:00,
2013-05-08 06:10:00,47.0,47.0,-100.00,WSW,250,10.0,11.0,99,-99.99,,,-99.99,,2013-05-08 11:10:00,
2013-05-08 06:33:00,47.0,47.0,-100.00,WSW,250,10.0,11.0,99,-99.99,,,-99.99,,2013-05-08 11:33:00,
2013-05-08 06:42:00,47.0,47.0,-100.00,WSW,250,10.0,11.0,99,-99.99,,,-99.99,,2013-05-08 11:42:00,
2013-05-08 06:52:00,47.0,47.0,-100.00,WSW,250,10.0,11.0,99,-99.99,,,-99.99,,2013-05-08 11:52:00,
2013-05-08 07:01:00,47.0,47.0,-100.00,WSW,250,10.0,11.0,99,-99.99,,,-99.99,,2013-05-08 12:01:00,
2013-05-08 07:10:00,46.0,45.0,-100.00,WSW,250,13.0,17.0,97,-99.99,,,-99.99,,2013-05-08 12:10:00,
2013-05-08 07:32:00,46.0,45.0,-100.00,WSW,250,13.0,17.0,97,-99.99,,,-99.99,,2013-05-08 12:32:00,
2013-05-08 07:42:00,46.0,45.0,-100.00,WSW,250,13.0,17.0,97,-99.99,,,-99.99,,2013-05-08 12:42:00,
2013-05-08 07:52:00,46.0,45.0,-100.00,WSW,250,13.0,17.0,97,-99.99,,,-99.99,,2013-05-08 12:52:00,
2013-05-08 08:01:00,46.0,45.0,-100.00,WSW,250,13.0,17.0,97,-99.99,,,-99.99,,2013-05-08 13:01:00,
2013-05-08 08:32:00,47.0,44.0,-100.00,WSW,250,16.0,19.0,88,-99.99,,,-99.99,,2013-05-08 13:32:00,
2013-05-08 08:42:00,47.0,44.0,-100.00,WSW,250,16.0,19.0,88,-99.99,,,-99.99,,2013-05-08 13:42:00,
2013-05-08 08:52:00,47.0,44.0,-100.00,WSW,250,16.0,19.0,88,-99.99,,,-99.99,,2013-05-08 13:52:00,
2013-05-08 09:02:00,47.0,44.0,-100.00,WSW,250,16.0,19.0,88,-99.99,,,-99.99,,2013-05-08 14:02:00,
2013-05-08 09:32:00,49.0,44.0,-100.00,North,5,21.0,26.0,82,-99.99,,,-99.99,,2013-05-08 14:32:00,
2013-05-08 09:42:00,49.0,44.0,-100.00,North,5,21.0,26.0,82,-99.99,,,-99.99,,2013-05-08 14:42:00,
2013-05-08 09:52:00,49.0,44.0,-100.00,North,5,21.0,26.0,82,-99.99,,,-99.99,,2013-05-08 14:52:00,
2013-05-08 10:02:00,49.0,44.0,-100.00,North,5,21.0,26.0,82,-99.99,,,-99.99,,2013-05-08 15:02:00,
2013-05-08 10:11:00,52.0,45.0,-100.00,WSW,250,22.0,26.0,78,-99.99,,,-99.99,,2013-05-08 15:11:00,
2013-05-08 10:33:00,52.0,45.0,-100.00,WSW,250,22.0,26.0,78,-99.99,,,-99.99,,2013-05-08 15:33:00,
2013-05-08 10:42:00,52.0,45.0,-100.00,WSW,250,22.0,26.0,78,-99.99,,,-99.99,,2013-05-08 15:42:00,
2013-05-08 10:53:00,52.0,45.0,-100.00,WSW,250,22.0,26.0,78,-99.99,,,-99.99,,2013-05-08 15:53:00,
2013-05-08 11:03:00,52.0,45.0,-100.00,WSW,250,22.0,26.0,78,-99.99,,,-99.99,,2013-05-08 16:03:00,
2013-05-08 11:10:00,54.0,46.0,-100.00,WSW,250,19.0,22.0,72,-99.99,,,-99.99,,2013-05-08 16:10:00,
2013-05-08 11:33:00,54.0,46.0,-100.00,WSW,250,19.0,22.0,72,-99.99,,,-99.99,,2013-05-08 16:33:00,
2013-05-08 11:42:00,54.0,46.0,-100.00,WSW,250,19.0,22.0,72,-99.99,,,-99.99,,2013-05-08 16:42:00,
2013-05-08 11:52:00,54.0,46.0,-100.00,WSW,250,19.0,22.0,72,-99.99,,,-99.99,,2013-05-08 16:52:00,
2013-05-08 12:02:00,54.0,46.0,-100.00,WSW,250,19.0,22.0,72,-99.99,,,-99.99,,2013-05-08 17:02:00,
2013-05-08 12:10:00,58.0,46.0,-100.00,WSW,255,17.0,23.0,64,-99.99,,,-99.99,,2013-05-08 17:10:00,
2013-05-08 12:52:00,58.0,46.0,-100.00,WSW,255,17.0,23.0,64,-99.99,,,-99.99,,2013-05-08 17:52:00,
2013-05-08 13:02:00,58.0,46.0,-100.00,WSW,255,17.0,23.0,64,-99.99,,,-99.99,,2013-05-08 18:02:00,
2013-05-08 13:10:00,59.0,46.0,-100.00,WSW,255,16.0,19.0,63,-99.99,,,-99.99,,2013-05-08 18:10:00,
2013-05-08 13:32:00,59.0,46.0,-100.00,WSW,255,16.0,19.0,63,-99.99,,,-99.99,,2013-05-08 18:32:00,
2013-05-08 13:42:00,59.0,46.0,-100.00,WSW,255,16.0,19.0,63,-99.99,,,-99.99,,2013-05-08 18:42:00,
2013-05-08 13:52:00,59.0,46.0,-100.00,WSW,255,16.0,19.0,63,-99.99,,,-99.99,,2013-05-08 18:52:00,
2013-05-08 14:01:00,59.0,46.0,-100.00,WSW,255,16.0,19.0,63,-99.99,,,-99.99,,2013-05-08 19:01:00,
2013-05-08 14:10:00,58.0,45.0,-100.00,WSW,255,24.0,30.0,62,-99.99,,,-99.99,,2013-05-08 19:10:00,
2013-05-08 14:32:00,58.0,45.0,-100.00,WSW,255,24.0,30.0,62,-99.99,,,-99.99,,2013-05-08 19:32:00,
2013-05-08 14:42:00,58.0,45.0,-100.00,WSW,255,24.0,30.0,62,-99.99,,,-99.99,,2013-05-08 19:42:00,
2013-05-08 14:52:00,58.0,45.0,-100.00,WSW,255,24.0,30.0,62,-99.99,,,-99.99,,2013-05-08 19:52:00,
2013-05-08 15:02:00,58.0,45.0,-100.00,WSW,255,24.0,30.0,62,-99.99,,,-99.99,,2013-05-08 20:02:00,
2013-05-08 15:10:00,62.0,46.0,-100.00,North,5,20.0,24.0,56,-99.99,,,-99.99,,2013-05-08 20:10:00,
2013-05-08 15:32:00,62.0,46.0,-100.00,North,5,20.0,24.0,56,-99.99,,,-99.99,,2013-05-08 20:32:00,
2013-05-08 15:42:00,62.0,46.0,-100.00,North,5,20.0,24.0,56,-99.99,,,-99.99,,2013-05-08 20:42:00,
2013-05-08 15:52:00,62.0,46.0,-100.00,North,5,20.0,24.0,56,-99.99,,,-99.99,,2013-05-08 20:52:00,
2013-05-08 16:01:00,62.0,46.0,-100.00,North,5,20.0,24.0,56,-99.99,,,-99.99,,2013-05-08 21:01:00,
2013-05-08 16:10:00,63.0,45.0,-100.00,WSW,255,17.0,21.0,53,-99.99,,,-99.99,,2013-05-08 21:10:00,
2013-05-08 16:33:00,63.0,45.0,-100.00,WSW,255,17.0,21.0,53,-99.99,,,-99.99,,2013-05-08 21:33:00,
2013-05-08 16:43:00,63.0,45.0,-100.00,WSW,255,17.0,21.0,53,-99.99,,,-99.99,,2013-05-08 21:43:00,
2013-05-08 16:53:00,63.0,45.0,-100.00,WSW,255,17.0,21.0,53,-99.99,,,-99.99,,2013-05-08 21:53:00,
2013-05-08 17:03:00,63.0,45.0,-100.00,WSW,255,17.0,21.0,53,-99.99,,,-99.99,,2013-05-08 22:03:00,
2013-05-08 17:11:00,62.0,44.0,-100.00,WSW,255,24.0,29.0,52,-99.99,,,-99.99,,2013-05-08 22:11:00,
2013-05-08 17:33:00,62.0,44.0,-100.00,WSW,255,24.0,29.0,52,-99.99,,,-99.99,,2013-05-08 22:33:00,
2013-05-08 17:42:00,62.0,44.0,-100.00,WSW,255,24.0,29.0,52,-99.99,,,-99.99,,2013-05-08 22:42:00,
2013-05-08 17:53:00,62.0,44.0,-100.00,WSW,255,24.0,29.0,52,-99.99,,,-99.99,,2013-05-08 22:53:00,
2013-05-08 18:01:00,62.0,44.0,-100.00,WSW,255,24.0,29.0,52,-99.99,,,-99.99,,2013-05-08 23:01:00,
2013-05-08 18:10:00,61.0,42.0,-100.00,WSW,255,16.0,18.0,50,-99.99,,,-99.99,,2013-05-08 23:10:00,
2013-05-08 18:33:00,61.0,42.0,-100.00,WSW,255,16.0,18.0,50,-99.99,,,-99.99,,2013-05-08 23:33:00,
2013-05-08 18:42:00,61.0,42.0,-100.00,WSW,255,16.0,18.0,50,-99.99,,,-99.99,,2013-05-08 23:42:00,
2013-05-08 18:52:00,61.0,42.0,-100.00,WSW,255,16.0,18.0,50,-99.99,,,-99.99,,2013-05-08 23:52:00,
2013-05-08 19:02:00,61.0,42.0,-100.00,WSW,255,16.0,18.0,50,-99.99,,,-99.99,,2013-05-09 00:02:00,
2013-05-08 19:32:00,58.0,39.0,-100.00,WSW,255,18.0,24.0,49,-99.99,,,-99.99,,2013-05-09 00:32:00,
2013-05-08 19:42:00,58.0,39.0,-100.00,WSW,255,18.0,24.0,49,-99.99,,,-99.99,,2013-05-09 00:42:00,
2013-05-08 19:52:00,58.0,39.0,-100.00,WSW,255,18.0,24.0,49,-99.99,,,-99.99,,2013-05-09 00:52:00,
2013-05-08 20:01:00,58.0,39.0,-100.00,WSW,255,18.0,24.0,49,-99.99,,,-99.99,,2013-05-09 01:01:00,
2013-05-08 20:10:00,55.0,37.0,-100.00,WSW,255,13.0,16.0,52,-99.99,,,-99.99,,2013-05-09 01:10:00,
2013-05-08 20:32:00,55.0,37.0,-100.00,WSW,255,13.0,16.0,52,-99.99,,,-99.99,,2013-05-09 01:32:00,
2013-05-08 20:42:00,55.0,37.0,-100.00,WSW,255,13.0,16.0,52,-99.99,,,-99.99,,2013-05-09 01:42:00,
2013-05-08 20:52:00,55.0,37.0,-100.00,WSW,255,13.0,16.0,52,-99.99,,,-99.99,,2013-05-09 01:52:00,
2013-05-08 21:02:00,55.0,37.0,-100.00,WSW,255,13.0,16.0,52,-99.99,,,-99.99,,2013-05-09 02:02:00,
2013-05-08 21:10:00,51.0,35.0,-100.00,WSW,255,16.0,19.0,54,-99.99,,,-99.99,,2013-05-09 02:10:00,
2013-05-08 21:33:00,51.0,35.0,-100.00,WSW,255,16.0,19.0,54,-99.99,,,-99.99,,2013-05-09 02:33:00,
2013-05-08 21:42:00,51.0,35.0,-100.00,WSW,255,16.0,19.0,54,-99.99,,,-99.99,,2013-05-09 02:42:00,
2013-05-08 21:52:00,51.0,35.0,-100.00,WSW,255,16.0,19.0,54,-99.99,,,-99.99,,2013-05-09 02:52:00,
2013-05-08 22:01:00,51.0,35.0,-100.00,WSW,255,16.0,19.0,54,-99.99,,,-99.99,,2013-05-09 03:01:00,
2013-05-08 22:10:00,49.0,33.0,-100.00,WSW,255,16.0,20.0,56,-99.99,,,-99.99,,2013-05-09 03:10:00,
2013-05-08 22:33:00,49.0,33.0,-100.00,WSW,255,16.0,20.0,56,-99.99,,,-99.99,,2013-05-09 03:33:00,
2013-05-08 22:43:00,49.0,33.0,-100.00,WSW,255,16.0,20.0,56,-99.99,,,-99.99,,2013-05-09 03:43:00,
2013-05-08 22:53:00,49.0,33.0,-100.00,WSW,255,16.0,20.0,56,-99.99,,,-99.99,,2013-05-09 03:53:00,
2013-05-08 23:03:00,49.0,33.0,-100.00,WSW,255,16.0,20.0,56,-99.99,,,-99.99,,2013-05-09 04:03:00,
2013-05-08 23:33:00,46.0,31.0,-100.00,North,0,17.0,19.0,56,-99.99,,,-99.99,,2013-05-09 04:33:00,
2013-05-08 23:43:00,46.0,31.0,-100.00,North,0,17.0,19.0,56,-99.99,,,-99.99,,2013-05-09 04:43:00,
2013-05-08 23:53:00,46.0,31.0,-100.00,North,0,17.0,19.0,56,-99.99,,,-99.99,,2013-05-09 04:53:00,